Regional Weather Roundup
Issued by NWS

Home | Current Version | Previous Version | Text Only | Print | Product List | Glossary Off
Versions: 1 2 3 4 5 6 7 8 9 10 11 12 13 14 15 16 17 18 19 20 21 22 23 24 25 26 27 28 29 30 31 32 33 34 35 36 37 38 39 40 41 42 43 44 45 46 47 48 49 50

000
ASUS43 KDMX 201301
RWRIA

WEATHER ROUNDUP FOR IOWA
NATIONAL WEATHER SERVICE DES MOINES IA
700 AM CST MON FEB 20 2017

NOTE: "FAIR" INDICATES FEW OR NO CLOUDS BELOW 12,000 FEET WITH NO
SIGNIFICANT WEATHER AND/OR OBSTRUCTIONS TO VISIBILITY.

* - THESE STATIONS ARE NOT NWS STATIONS...THUS NOT UNDER NWS
QUALITY CONTROL.  THEY ALSO DO NOT REPORT WEATHER SUCH
AS PRECIPITATION OR FOG.

IAZ001>003-012>014-020>022-031>034-043>046-201400-
   NORTHWEST IOWA

CITY           SKY/WX    TMP DP  RH WIND       PRES   REMARKS
CARROLL *      DRIZZLE   50  50 100 SE7       29.78F
CHEROKEE *     RAIN      51  51  99 SE6       29.75F
DENISON *      CLOUDY    55  55 100 S10G20    29.74F
LE MARS *      CLOUDY    54  52  94 S6        29.73F FOG
SHELDON *      RAIN      54  54 100 SE21      29.72F
SIOUX CITY     CLOUDY    56  54  93 SE12      29.72F
SPENCER        LGT RAIN  52  49  89 S18       29.76F
STORM LAKE *   LGT RAIN  52  50  93 S9        29.77F
$$

IAZ055>058-069>071-079>083-090>094-201400-
   SOUTHWEST IOWA

CITY           SKY/WX    TMP DP  RH WIND       PRES   REMARKS
ATLANTIC *     CLOUDY    57  55  94 S8        29.79R
CLARINDA *     CLOUDY    59  59 100 S8          N/A
COUNCIL BLFS * CLOUDY    57  57 100 S9        29.78R
CRESTON *      CLOUDY    57  57 100 S12       29.83S
HARLAN  *      CLOUDY    55  55 100 S9        29.81R
LAMONI         CLOUDY    58  54  86 SE12      29.84F
RED OAK *      CLOUDY    57  57 100 S13       29.77S
SHENANDOAH *   CLOUDY    59  57  94 S16       29.77F
$$

IAZ047>049-059>061-072>074-084-201400-
   CENTRAL IOWA

CITY           SKY/WX    TMP DP  RH WIND       PRES   REMARKS
AMES           TSTM      53  52  96 SE12      29.85S FOG
ANKENY *       RAIN      57  54  88 S8        29.85S
BOONE *        LGT RAIN  52  52 100 SE12      29.83R
CHARITON *     CLOUDY    59  54  82 S15G22    29.86S
DES MOINES     LGT RAIN  58  55  90 SE12      29.84S FOG
GRINNELL*      CLOUDY    51  49  90 SE10      29.89F
KNOXVILLE *    CLOUDY    59  54  82 SE13G20   29.84F
MARSHALLTOWN   CLOUDY    51  48  89 SE13      29.86F
NEWTON *       CLOUDY    54  50  87 SE16      29.84F
PELLA *        CLOUDY    55  51  85 SE12      29.87F
PERRY *        RAIN      52  51  97 SE7       29.83F
$$

IAZ004>006-015-016-023>025-035-036-201400-
   NORTH CENTRAL IOWA

CITY           SKY/WX    TMP DP  RH WIND       PRES   REMARKS
ALGONA *       CLOUDY    52  50  93 SE17G25   29.81F
CLARION *      CLOUDY    50  50 100 SE14      29.83F
ESTHERVILLE    CLOUDY    48  46  93 S15       29.77F
FORT DODGE *   CLOUDY    52  46  82 SE3       29.83S THUNDER
MASON CITY     CLOUDY    46  44  93 SE10      29.87F
FOREST CITY *    N/A     46  45  93 SE10      29.84F
IOWA FALLS *     N/A     49  46  90 SE9       29.87S
$$

IAZ007>011-017>019-026>030-037>042-050>054-066-201400-
   NORTHEAST IOWA

CITY           SKY/WX    TMP DP  RH WIND       PRES   REMARKS
CEDAR RAPIDS   CLOUDY    51  50  96 SE10      29.93F FOG
CHARLES CITY * CLOUDY    48  48 100 SE13      29.90S
CLINTON *      FOG       47  47 100 E10       30.03R VSB 1/4
DECORAH *      CLOUDY    48  45  87 SE14G21   29.92F
DUBUQUE        CLOUDY    46  45  96 SE12      30.00S FOG
MONTICELLO *   CLOUDY    48  46  93 SE12      29.97F FOG
OELWEIN *      MOCLDY    48  48 100 SE16      29.92F FOG
WATERLOO       CLOUDY    52  48  86 SE14      29.89F
$$

IAZ064-065-067-068-078-201400-
   EAST CENTRAL IOWA

CITY           SKY/WX    TMP DP  RH WIND       PRES   REMARKS
DAVENPORT      CLOUDY    50  48  93 SE13      30.00F FOG
IOWA CITY      CLOUDY    50  48  93 SE7       29.97F
MUSCATINE *    MOCLDY    52  50  93 SE10      29.98F FOG
QUAD CITIES    CLOUDY    52  49  89 SE9       30.00F FOG
$$

IAZ062-063-075>077-085>089-095>099-201400-
   SOUTHEAST IOWA

CITY           SKY/WX    TMP DP  RH WIND       PRES   REMARKS
BURLINGTON     CLOUDY    52  51  97 SE9       29.97F FOG
FAIRFIELD *    CLOUDY    54  50  87 SE9       29.92F
KEOKUK *       CLOUDY    52  50  93 SE10      29.95F FOG
OTTUMWA        CLOUDY    57  54  89 SE14      29.89F
WASHINGTON *   PTCLDY    52  52 100 SE13      29.95F FOG
$$

ABBREVIATIONS USED IN REMARKS
   TC - TEMPERATURES IN CELSIUS
  WCI - WIND CHILL INDEX
   HX - HEAT INDEX
  VSB - VISIBILITY
$$





USA.gov is the U.S. government's official web portal to all federal, state and local government web resources and services.